Weather History for Wautoma, WI

Change the Weather History Date:

Sunday, February 3, 2013

  Actual Average (KPCZ) Record (KPCZ)
Temperature  
Mean Temperature 4 °F -  
Max Temperature 15 °F 26 °F 47 °F (1987)
Min Temperature -6 °F 6 °F -19 °F (1970)
Degree Days  
Heating Degree Days 60    
Moisture  
Dew Point -1 °F    
Average Humidity 75    
Maximum Humidity 85    
Minimum Humidity 56    
Precipitation  
Precipitation 0.00 in - - ()
Sea Level Pressure  
Sea Level Pressure 29.97 in    
Wind  
Wind Speed 3 mph (WNW)    
Max Wind Speed 18 mph    
Max Gust Speed 22 mph    
Visibility 9 miles    
Events Snow    
Averages and records for this station are not official NWS values.
T = Trace of Precipitation, MM = Missing Value Source: NWS Daily Summary

Daily Weather History Graph

Daily Weather History Graph

Search for Another Location

Airport:

Trip Planner

Search our weather history database for the weather conditions in past years. The results will help you decide how hot, cold, wet, or windy it might be!

Date:

Astronomy

Feb. 03, 2013 Rise Set
Actual Time 7:12 AM CST 5:10 PM CST
Civil Twilight 6:41 AM CST 5:41 PM CST
Nautical Twilight 6:07 AM CST 6:15 PM CST
Astronomical Twilight 5:33 AM CST 6:49 PM CST
Moon 12:40 AM CST (2/3) 10:46 AM CST (2/3)
Length of Visible Light 10h 59m
Length of Day
9h 58m
Waning Gibbous, 48% of the Moon is Illuminated
Feb 3
Waning Gibbous
Feb 10
New
Feb 17
First Quarter
Feb 25
Full
Mar 4
Last Quarter

Hourly Weather History & Observations

Time (CST) Temp. Windchill Dew Point Humidity Pressure Visibility Wind Dir Wind Speed Gust Speed Precip Events Conditions
12:37 AM -4.0 °F - -9.4 °F 78% 29.97 in 10.0 mi Calm Calm - 0.00 in   Mostly Cloudy
12:56 AM -6.0 °F - -9.9 °F 83% 30.03 in 10.0 mi Calm Calm - 0.00 in   Overcast
2:03 AM -5.8 °F - -9.4 °F 84% 29.95 in 10.0 mi Calm Calm - N/A   Overcast
2:56 AM -2.2 °F - -7.6 °F 78% 29.93 in 9.0 mi Calm Calm - N/A Snow Light Snow
3:20 AM -2.2 °F - -7.6 °F 78% 29.92 in 9.0 mi Calm Calm - 0.00 in   Overcast
3:28 AM -2.2 °F - -7.6 °F 78% 29.91 in 10.0 mi Calm Calm - 0.00 in   Overcast
3:33 AM -2.2 °F - -5.8 °F 85% 29.91 in 10.0 mi Calm Calm - 0.00 in   Overcast
3:39 AM -2.2 °F - -7.6 °F 78% 29.91 in 10.0 mi Calm Calm - 0.00 in   Overcast
3:56 AM -0.9 °F - -4.9 °F 83% 29.97 in 10.0 mi Calm Calm - 0.00 in   Overcast
4:13 AM 1.4 °F - -4.0 °F 78% 29.92 in 10.0 mi Calm Calm - N/A   Overcast
4:20 AM -0.4 °F - -4.0 °F 85% 29.91 in 10.0 mi Calm Calm - N/A   Overcast
4:30 AM 1.4 °F - -2.2 °F 85% 29.91 in 10.0 mi Calm Calm - N/A   Overcast
4:47 AM 1.4 °F - -2.2 °F 85% 29.91 in 10.0 mi Calm Calm - N/A   Overcast
5:56 AM 3.2 °F - -0.4 °F 85% 29.91 in 9.0 mi Calm Calm - N/A Snow Light Snow
6:14 AM 5.0 °F -5.6 °F 1.4 °F 85% 29.92 in 7.0 mi WSW 5.8 mph - 0.00 in Snow Light Snow
6:23 AM 5.0 °F -6.9 °F 1.4 °F 85% 29.92 in 7.0 mi WSW 6.9 mph - 0.00 in Snow Light Snow
6:44 AM 6.8 °F -5.9 °F 1.4 °F 79% 29.92 in 8.0 mi West 8.1 mph - 0.00 in Snow Light Snow
6:56 AM 7.2 °F -6.4 °F 3.0 °F 83% 29.98 in 9.0 mi WNW 9.2 mph - 0.00 in   Overcast
7:06 AM 6.8 °F -6.9 °F 3.2 °F 85% 29.91 in 10.0 mi WNW 9.2 mph - 0.00 in   Overcast
7:24 AM 6.8 °F -7.8 °F 1.4 °F 79% 29.93 in 5.0 mi WNW 10.4 mph - 0.00 in Snow Light Snow
7:56 AM 7.2 °F -8.1 °F 2.1 °F 80% 30.00 in 10.0 mi WNW 11.5 mph - 0.00 in   Overcast
8:56 AM 8.6 °F -6.3 °F 1.4 °F 73% 29.94 in 10.0 mi NW 11.5 mph - N/A   Mostly Cloudy
9:56 AM 9.1 °F -6.4 °F 0.1 °F 67% 30.02 in 10.0 mi NW 12.7 mph 18.4 mph N/A   Partly Cloudy
10:56 AM 10.0 °F -8.1 °F 0.1 °F 64% 30.03 in 10.0 mi NW 18.4 mph 21.9 mph N/A   Partly Cloudy
11:56 AM 12.2 °F -4.3 °F 1.4 °F 62% 29.96 in 10.0 mi WNW 16.1 mph 21.9 mph N/A   Partly Cloudy
12:56 PM 13.1 °F -3.1 °F 1.0 °F 59% 30.01 in 10.0 mi WNW 16.1 mph - N/A   Clear
1:56 PM 14.0 °F -0.8 °F 1.0 °F 56% 30.01 in 10.0 mi WNW 13.8 mph - N/A   Mostly Cloudy
2:56 PM 14.0 °F 0.5 °F 2.1 °F 59% 30.01 in 10.0 mi WNW 11.5 mph - N/A   Mostly Cloudy
3:56 PM 15.1 °F 1.1 °F 2.1 °F 57% 30.01 in 10.0 mi WNW 12.7 mph - N/A   Scattered Clouds
4:56 PM 12.0 °F 2.7 °F 1.0 °F 61% 30.01 in 10.0 mi West 5.8 mph - N/A   Clear
5:56 PM 11.1 °F 1.7 °F 0.1 °F 61% 30.03 in 10.0 mi WNW 5.8 mph - N/A   Mostly Cloudy
6:56 PM 10.0 °F - 1.0 °F 67% 30.03 in 10.0 mi Calm Calm - N/A   Overcast
7:56 PM 11.1 °F - 3.0 °F 70% 30.04 in 10.0 mi Calm Calm - N/A   Overcast
8:56 PM 9.1 °F - 2.1 °F 73% 30.04 in 10.0 mi Calm Calm - N/A   Overcast
9:56 PM 7.2 °F - 1.0 °F 76% 30.06 in 10.0 mi Calm Calm - N/A   Overcast
10:56 PM 9.1 °F - 3.0 °F 76% 30.04 in 10.0 mi Calm Calm - N/A   Mostly Cloudy
11:56 PM 8.6 °F - 3.2 °F 79% 30.00 in 6.0 mi Calm Calm - N/A Snow Light Snow